This demonstration page uses our WeatherBlox Daily Observations layout. Learn more.

Hourly Observations for May 6, 2016

Temp ( °F °C ) Dew Point ( °F °C ) Humidity (%) Winds ( mph kmh ) Pressure ( in mb ) Visibility ( mi km ) Precip ( " mm )
12:15 am 00:15 Clear 58 14.5 46 7.5 63 63 S 9 15 30 1016 10 16.0934 0 0
12:35 am 00:35 Clear 57 14.1 45 7.4 64 64 S 9 15 30 1016 10 16.0934 0 0
12:55 am 00:55 Clear 58 14.2 45 7.2 63 63 S 9 15 30 1016 10 16.0934 0 0
1:15 am 01:15 Clear 56 13.6 45 7.2 66 66 S 7 11 30 1016 10 16.0934 0 0
1:35 am 01:35 Clear 56 13.6 45 7.1 65 65 S 8 13 30 1016 10 16.0934 0 0
1:55 am 01:55 Clear 56 13.2 45 7.1 67 67 S 7 11 30 1016 10 16.0934 0 0
2:15 am 02:15 Clear 56 13.1 45 7.1 67 67 S 7 11 30 1016 10 16.0934 0 0
2:35 am 02:35 Clear 54 12.4 45 7.1 70 70 S 6 9 30.03 1017 10 16.0934 0 0
2:55 am 02:55 Clear 54 12.1 45 7 71 71 S 7 11 30.03 1017 10 16.0934 0 0
3:15 am 03:15 Clear 53 11.5 45 7 74 74 S 7 11 30.03 1017 10 16.0934 0 0
3:35 am 03:35 Clear 55 13 44 6.7 66 66 S 7 11 30 1016 10 16.0934 0 0
3:55 am 03:55 Clear 56 13.2 44 6.5 64 64 S 10 17 30 1016 10 16.0934 0 0
4:15 am 04:15 Clear 55 13 43 6.3 64 64 S 8 13 30 1016 10 16.0934 0 0
4:35 am 04:35 Clear 55 13 43 6.1 63 63 SSW 9 15 29.97 1015 10 16.0934 0 0
4:55 am 04:55 Clear 55 12.6 43 6.1 65 65 SSW 8 13 29.97 1015 10 16.0934 0 0
5:15 am 05:15 Clear 55 12.6 43 6 64 64 SSW 7 11 29.97 1015 10 16.0934 0 0
5:35 am 05:35 Clear 54 12.3 43 6 66 66 S 8 13 30 1016 10 16.0934 0 0
5:55 am 05:55 Clear 53 11.9 43 6.1 68 68 S 8 13 30 1016 10 16.0934 0 0
6:15 am 06:15 Clear 54 12 43 6.1 67 67 S 8 13 30 1016 10 16.0934 0 0
6:35 am 06:35 Sunny 54 12 43 6.2 68 68 S 7 11 30 1016 10 16.0934 0 0
6:55 am 06:55 Sunny 54 12 44 6.4 69 69 SSW 6 9 30 1016 10 16.0934 0 0
7:15 am 07:15 Sunny 55 13 44 6.5 65 65 SSW 9 15 29.97 1015 10 16.0934 0 0
7:35 am 07:35 Sunny 58 14.4 44 6.9 61 61 SSW 8 13 29.97 1015 10 16.0934 0 0
7:55 am 07:55 Sunny 61 16 44 6.7 54 54 SSW 12 19 29.94 1014 10 16.0934 0 0
8:15 am 08:15 Sunny 62 16.8 44 6.7 52 52 SSW 14 22 29.94 1014 10 16.0934 0 0
8:35 am 08:35 Sunny 64 18 44 6.8 48 48 SSW 18 30 29.94 1014 10 16.0934 0 0
8:55 am 08:55 Sunny 65 18.2 45 7 48 48 SSW 20 31 29.94 1014 10 16.0934 0 0
9:15 am 09:15 Sunny 65 18.5 45 7.2 48 48 SSW 17 28 29.94 1014 10 16.0934 0 0
9:35 am 09:35 Sunny 67 19.5 45 7.4 46 46 SSW 20 31 29.91 1013 10 16.0934 0 0
9:55 am 09:55 Sunny 68 20 46 7.6 45 45 SSW 17 28 29.91 1013 10 16.0934 0 0
10:15 am 10:15 Sunny 70 21.2 45 7.1 40 40 SSW 24 39 29.91 1013 10 16.0934 0 0
10:35 am 10:35 Sunny 70 21 45 7.4 42 42 SSW 21 33 29.91 1013 10 16.0934 0 0
10:55 am 10:55 Sunny 71 21.7 46 7.8 41 41 SSW 18 30 29.91 1013 7 11.26538 0 0
11:15 am 11:15 Sunny 72 22.2 46 7.7 39 39 SSW 18 30 29.91 1013 10 16.0934 0 0
11:35 am 11:35 Sunny 73 23 47 8.1 39 39 S 18 30 29.91 1013 10 16.0934 0 0
11:55 am 11:55 Sunny 75 23.9 47 8.1 37 37 S 17 28 29.88 1012 10 16.0934 0 0
12:15 pm 12:15 Sunny 76 24.7 47 8.2 35 35 S 21 33 29.85 1011 10 16.0934 0 0
12:35 pm 12:35 Sunny 78 25.4 47 8.2 34 34 S 21 33 29.85 1011 10 16.0934 0 0
12:55 pm 12:55 Sunny 78 25.8 47 8.3 33 33 S 20 31 29.85 1011 10 16.0934 0 0
1:15 pm 13:15 Sunny 79 26 47 8.5 33 33 S 22 35 29.85 1011 10 16.0934 0 0
1:35 pm 13:35 Sunny 80 26.5 47 8.1 31 31 S 17 28 29.83 1010 10 16.0934 0 0
1:55 pm 13:55 Sunny 79 26.3 47 8.4 32 32 S 20 31 29.8 1009 10 16.0934 0 0
2:15 pm 14:15 Sunny 80 26.6 47 8.1 31 31 S 22 35 29.8 1009 10 16.0934 0 0
2:35 pm 14:35 Sunny 80 26.6 47 8.5 32 32 S 21 33 29.8 1009 10 16.0934 0 0
2:55 pm 14:55 Sunny 80 26.9 48 8.7 32 32 S 16 26 29.8 1009 10 16.0934 0 0
3:15 pm 15:15 Sunny 80 26.4 48 8.8 33 33 S 20 31 29.8 1009 10 16.0934 0 0
3:35 pm 15:35 Sunny 80 26.8 49 9.2 33 33 S 20 31 29.77 1008 10 16.0934 0 0
3:55 pm 15:55 Sunny 80 26.5 49 9.2 34 34 S 17 28 29.77 1008 10 16.0934 0 0
4:15 pm 16:15 Sunny 80 26.7 49 9.7 34 34 S 15 24 29.77 1008 7 11.26538 0 0
4:35 pm 16:35 Sunny 82 27.8 49 9.6 32 32 S 18 30 29.74 1007 10 16.0934 0 0
4:55 pm 16:55 Sunny 82 28 47 8.6 30 30 S 16 26 29.74 1007 10 16.0934 0 0
5:15 pm 17:15 Sunny 82 27.5 49 9.4 32 32 S 17 28 29.74 1007 10 16.0934 0 0
5:35 pm 17:35 Sunny 82 28 49 9.2 31 31 S 15 24 29.74 1007 10 16.0934 0 0
5:55 pm 17:55 Sunny 82 28 47 8.5 29 29 S 15 24 29.74 1007 10 16.0934 0 0
6:15 pm 18:15 Sunny 82 27.9 48 8.7 30 30 SSE 15 24 29.71 1006 10 16.0934 0 0
6:35 pm 18:35 Sunny 82 28 47 8.1 29 29 S 15 24 29.71 1006 10 16.0934 0 0
6:55 pm 18:55 Sunny 82 28 46 7.9 28 28 S 15 24 29.71 1006 10 16.0934 0 0
7:15 pm 19:15 Sunny 80 26.6 47 8.1 31 31 S 13 20 29.71 1006 10 16.0934 0 0
7:35 pm 19:35 Sunny 77 25.1 48 8.8 36 36 SSE 8 13 29.74 1007 10 16.0934 0 0
7:55 pm 19:55 Sunny 75 23.9 50 10 41 41 SSE 8 13 29.74 1007 10 16.0934 0 0
8:15 pm 20:15 Sunny 73 23 50 10 44 44 SSE 8 13 29.74 1007 10 16.0934 0 0
8:35 pm 20:35 Sunny 72 22.4 50 10.2 46 46 SE 9 15 29.74 1007 10 16.0934 0 0
8:55 pm 20:55 Clear 71 21.8 51 10.5 49 49 SE 8 13 29.74 1007 10 16.0934 0 0
9:15 pm 21:15 Clear 70 21.3 51 10.6 51 51 SSE 9 15 29.8 1009 10 16.0934 0 0
9:35 pm 21:35 Clear 69 20.7 51 10.8 53 53 SSE 8 13 29.8 1009 10 16.0934 0 0
9:55 pm 21:55 Clear 67 19.3 52 11 59 59 SSE 7 11 29.8 1009 10 16.0934 0 0
10:15 pm 22:15 Clear 66 18.9 52 11 60 60 SSE 8 13 29.8 1009 10 16.0934 0 0
10:35 pm 22:35 Clear 65 18.6 52 11 61 61 SSE 9 15 29.8 1009 10 16.0934 0 0
10:55 pm 22:55 Clear 67 19.6 51 10.7 57 57 S 10 17 29.8 1009 10 16.0934 0 0
11:15 pm 23:15 Clear 67 19.2 51 10.6 58 58 S 12 19 29.8 1009 10 16.0934 0 0
11:35 pm 23:35 Clear 66 19 51 10.5 58 58 S 12 19 29.8 1009 10 16.0934 0 0
11:55 pm 23:55 Clear 65 18.4 51 10.6 61 61 S 10 17 29.8 1009 10 16.0934 0 0

Powered by AerisWeather